Location: Starry Hill Observatory
(46.8582°N, 122.3590°W)
Time: 12:18:20
(UTC-07:00)

Daily predictions for brighter satellites

Satellite Brightness Start Highest point End
(mag) Time Altitude Azimuth Time Altitude Azimuth Time Altitude Azimuth
Cosmos 1943 3.7 21:37:54 10° NNW 21:43:25 51° ENE 21:48:55 10° SE
KORONAS-FOTON 3.8 21:42:34 10° S 21:46:19 69° E 21:50:06 10° NNE
SL-16 R/B 3.7 21:41:46 10° NW 21:46:45 32° WSW 21:51:43 10° SSW
ERBS 2.5 21:44:47 10° WNW 21:48:09 64° SW 21:51:30 10° SE
Cosmos 1459 Rocket 4.3 21:48:52 10° NNW 21:55:09 73° W 22:01:18 10° S
Cosmos 1076 Rocket 4.0 21:53:34 10° SSW 21:57:54 65° W 22:02:15 10° N
Abrixas rocket 3.0 21:56:35 10° W 21:59:38 38° SSW 22:02:33 11° SE
H-2A R/B 2.5 21:58:21 10° SE 22:03:32 52° ENE 22:08:50 10° N
Lacrosse 5 2.7 22:00:37 10° WNW 22:05:22 41° SW 22:10:06 10° SSE
YAOGAN 6 4.3 22:03:38 10° SSW 22:06:56 32° W 22:10:18 10° NNW
Cosmos 2151 3.9 22:04:34 10° SSE 22:08:22 32° E 22:12:12 10° NNE
SL-08 RB Rocket 3.8 22:04:15 10° SSE 22:08:48 68° ENE 22:13:25 10° N
SPOT 5 3.0 22:03:53 10° SSE 22:08:48 77° ENE 22:14:01 10° N
Cosmos 1408 Rocket 3.7 22:06:48 10° SSW 22:11:06 74° W 22:15:28 10° N
Meteor 2-10 4.3 22:05:49 10° N 22:11:29 81° E 22:17:13 10° SSE
Cosmos 1626 3.4 22:12:41 12° SE 22:15:18 25° E 22:18:23 10° NE
Cosmos 1356 4.3 22:12:38 11° SSE 22:15:33 32° E 22:18:42 10° NNE
Cosmos 1726 2.5 22:12:10 10° NNW 22:15:49 62° W 22:19:26 10° S
Cosmos 1703 4.5 22:14:37 12° SE 22:17:31 27° E 22:20:55 10° NNE
Landsat 7 4.3 22:14:00 12° SE 22:18:14 47° ENE 22:22:48 10° N
Tiangong 1 2.0 22:16:48 10° WSW 22:19:12 26° SSW 22:20:43 16° SSE
Cosmos 2123 Rocket 4.0 22:13:18 10° S 22:19:27 79° E 22:25:42 10° N
Abrixas 3.0 22:21:54 10° SW 22:24:18 29° SSE 22:26:43 10° E
Cosmos 1763 Rocket 3.7 22:26:50 10° NNW 22:31:55 65° WSW 22:36:32 12° S
Cosmos 841 Rocket 3.6 22:27:00 10° NNW 22:32:17 82° WSW 22:36:47 14° SSE
Cosmos 1300 3.4 22:28:40 10° NNW 22:32:24 52° W 22:36:08 10° S
Cosmos 1500 Rocket 3.6 22:28:04 10° S 22:32:30 68° E 22:36:56 10° NNE
Terra 2.3 22:29:25 15° SE 22:33:10 47° ENE 22:37:44 10° N
Cosmos 304 Rocket 3.9 22:32:01 10° NNW 22:36:48 63° ENE 22:40:25 17° SE
Cosmos 2285 Rocket 4.2 22:31:05 10° NNW 22:37:25 66° ENE 22:42:35 16° SE
Meteor 1-11 4.3 22:31:53 10° S 22:37:40 69° E 22:43:27 10° NNE
Cosmos 1725 Rocket 4.3 22:32:45 10° NNW 22:38:58 67° W 22:45:06 10° S
Cosmos 1486 Rocket 4.0 22:34:49 10° SSW 22:40:05 87° ESE 22:45:27 10° NNE
IGS 5A 3.9 22:39:22 18° SE 22:42:16 50° ENE 22:46:20 10° N
Cosmos 2263 Rocket 2.1 22:37:05 10° SSW 22:42:35 66° ESE 22:48:09 10° NNE
ATLAS 5 CENTAUR R/B 4.2 22:38:52 10° W 22:43:06 29° NNW 22:47:43 10° NNE
CARTOSAT-1 3.8 22:40:30 18° SE 22:43:36 56° ENE 22:47:51 10° N
Cosmos 2084 Rocket 4.3 22:44:29 10° NNW 22:48:04 36° NE 22:50:59 14° ESE
DMSP B5D2-2 4.1 22:43:30 10° NNE 22:48:42 62° ESE 22:53:20 13° S
Cosmos 1151 Rocket 3.2 22:45:17 10° NNW 22:49:40 71° W 22:53:14 15° S
Meteor 1-27 4.4 22:45:01 10° NNW 22:50:52 80° W 22:55:46 15° S
Cosmos 1805 Rocket 4.3 22:49:44 20° SE 22:52:05 34° E 22:56:01 10° NNE
SL-14 R/B 4.3 22:48:36 10° SSW 22:52:23 44° WNW 22:56:10 10° N
Cosmos 1515 Rocket 4.5 22:54:18 10° NNW 22:58:26 44° W 23:02:18 11° SSW
SPOT 1/Viking Rocket 4.1 22:54:21 12° S 22:58:56 53° W 23:04:00 10° NNW
COSMOS 2406 4.1 22:54:46 10° NNW 23:00:07 41° NE 23:04:21 16° ESE
H-2A R/B 2.1 23:01:49 23° SSE 23:04:26 71° ENE 23:08:38 10° N
Cosmos 1464 Rocket 4.2 22:58:45 10° N 23:04:50 58° ENE 23:09:02 21° SSE
Cosmos 1455 2.1 23:01:18 10° N 23:05:12 82° E 23:07:19 25° SSE
USA 234 3.2 22:59:57 10° ENE 23:06:28 63° SE 23:12:55 10° SW
Cosmos 2058 3.2 23:03:10 12° SSW 23:06:59 70° W 23:11:13 10° N
Spot 4 4.2 23:08:10 22° SE 23:11:08 57° ENE 23:15:55 10° N
SL-24 R/B - RUBIN 2 4.5 23:07:10 10° NNW 23:12:46 55° NE 23:16:18 19° ESE
Cosmos 1844 Rocket 3.7 23:13:19 22° SE 23:15:27 28° ESE 23:20:08 10° NE
Cosmos 967 Rocket 4.5 23:09:41 10° NW 23:16:06 86° SW 23:20:22 23° SSE
CZ-4C R/B 2.7 23:16:27 22° S 23:19:17 38° ESE 23:24:44 10° NE
Cosmos 540 Rocket 3.8 23:20:00 10° NNW 23:25:04 60° WSW 23:28:08 23° S
Cosmos 1503 Rocket 4.2 23:21:30 10° SSW 23:26:41 73° WNW 23:31:52 10° NNE
CZ-4B R/B 3.8 23:21:35 10° NNE 23:26:47 55° E 23:29:37 26° SSE
SL-24 R/B 4.5 23:27:37 30° SSE 23:29:35 77° ENE 23:33:53 10° N
Cosmos 968 Rocket 3.8 23:32:29 27° SSE 23:35:00 48° ESE 23:40:04 10° NNE
Cosmos 1869 3.2 23:31:11 10° N 23:35:10 90° W 23:36:46 35° S
Cosmos 2242 Rocket 4.1 23:32:27 10° N 23:36:56 50° ENE 23:38:55 29° SE
Cosmos 1933 4.3 23:36:00 10° N 23:39:49 36° ENE 23:41:15 27° ESE
H-2A R/B 3.9 23:38:53 10° SSW 23:43:14 25° W 23:47:40 10° NW
CZ-2C R/B 3.7 23:38:53 10° NE 23:43:26 28° E 23:45:10 23° SE
Sich 1 2.9 23:42:47 32° S 23:44:44 82° E 23:49:01 10° N
Tsikada Rocket 4.3 23:41:15 26° SSE 23:44:44 55° E 23:50:53 10° NNE
Meteor 2-10 Rocket 4.1 23:40:50 10° N 23:46:05 51° ENE 23:48:56 27° SE
Cosmos 1315 Rocket 4.3 23:49:28 22° ESE 23:50:01 22° E 23:53:06 10° NE
Cosmos 1626 4.2 23:47:31 10° SW 23:50:36 24° WNW 23:53:43 10° NNW
Cosmos 1400 Rocket 3.4 23:49:48 35° SE 23:50:53 44° E 23:54:51 10° NNE
CZ-4C R/B 3.6 23:51:51 35° S 23:53:39 77° WSW 23:58:07 10° NNW
